Location: Anciles
(42.5833°N, 0.5167°E)
Time: 02:24:05
(UTC+00:00)

YAOGAN 1 - Pass Details

Date: 10 December 2019
Orbit: 619 x 621 km, 98.0° (Epoch: 20 January)

Event Time Altitude Azimuth Distance (km) Brightness Sun altitude
Rises 17:32:56 0° 135° (SE) 2,887 5.7 -12.2°
Reaches altitude 10° 17:35:24 10° 122° (ESE) 1,986 4.8 -12.6°
Maximum altitude 17:38:55 25° 67° (ENE) 1,272 3.5 -13.2°
Drops below altitude 10° 17:42:26 10° 13° (NNE) 1,998 4.9 -13.8°
Sets 17:44:56 0° 360° (N) 2,909 5.8 -14.3°
